Regional Weather Roundup
Issued by NWS Spokane, WA

Home | Current Version | Previous Version | Text Only | Print | Product List | Glossary On
Versions: 1 2 3 4 5 6 7 8 9 10 11 12 13 14 15 16 17 18 19 20 21 22 23 24 25 26 27 28 29 30 31 32 33 34 35 36 37 38 39 40 41 42 43 44 45 46 47 48 49 50
000
NZUS01 KOTX 240005
RWROTX

Eastern Washington/Northern Idaho Roundup
National Weather Service, Spokane WA
400 PM PST MON JAN 23 2017

Note: "fair" indicated few or no clouds below 12,000 feet with no
significant weather and/or obstructions to visibility.

...Northeast Washington and Northern Idaho Panhandle...

CITY           SKY/WX    TMP DP  RH WIND       PRES   REMARKS
Spokane Intl   MOCLDY    33  29  85 E6        29.77R WCI  28
Spokane Downto CLOUDY    36  32  85 CALM      29.78R
Coeur d Alene  PTCLDY    33  31  92 W7        29.76R WCI  27
Deer Park      PTCLDY    36  30  79 CALM      29.77R
Sandpoint      PTCLDY    34  32  93 CALM      29.76S
Bonners Ferry  MOCLDY    37  28  70 CALM      29.76S

...Southeast Washington and southern Idaho Panhandle...

CITY           SKY/WX    TMP DP  RH WIND       PRES   REMARKS
Walla Walla    CLOUDY    31  29  92 SW5       29.85R FOG     WCI  26
Pullman/Moscow FOG       26  25  96 W7        29.78R VSB<1/4 WCI  18
Lewiston       CLOUDY    32  28  85 E3        29.81R
Lowell           N/A     35  28  75 S10       29.76R WCI  27
Grangeville    FAIR      27  27 100 CALM      29.69R

...Columbia Basin...

CITY           SKY/WX    TMP DP  RH WIND       PRES   REMARKS
Ephrata        PTCLDY    35  27  72 CALM      29.83R
Moses Lake     CLOUDY    35  30  82 N5        29.85R
Pasco          CLOUDY    35  32  88 CALM      29.90R
Richland       CLOUDY    35  33  90 CALM      29.90R
Hermiston      CLOUDY    33  32  96 CALM      29.88R FOG
Pendleton      CLOUDY    30  30 100 S5        29.83R WCI  25

...East Slopes Cascades...

CITY           SKY/WX    TMP DP  RH WIND       PRES   REMARKS
The Dalles     CLOUDY    35  32  88 E6        29.91R
Yakima         CLOUDY    37  30  75 CALM      29.86R
Ellensburg     CLEAR     31  25  78 E5        29.81R WCI  26
Wenatchee      CLEAR     34  28  79 NW3       29.83R
Omak           CLOUDY    35  31  85 CALM      29.84R
Sunnyside      CLOUDY    31  29  92 CALM      29.88R

...Southern British Columbia...

CITY           SKY/WX    TMP DP  RH WIND       PRES   REMARKS

...Western Montana...

CITY           SKY/WX    TMP DP  RH WIND       PRES   REMARKS
Kalispell      CLOUDY    32  20  61 CALM      29.74R
Missoula       CLOUDY    32  25  75 NW13G21   29.71R WCI  22

...Neighboring Cities...

CITY           SKY/WX    TMP DP  RH WIND       PRES   REMARKS
Seattle        PTCLDY    46  38  73 N9        29.88R
Portland       MOCLDY    48  36  63 NW5       29.84R
Boise          CLOUDY    31  25  78 NW10      29.65R WCI  22
Great Falls    CLOUDY    20  16  84 CALM      29.78R



USA.gov is the U.S. government's official web portal to all federal, state and local government web resources and services.